Simultaneous Nadir Overpasses (SNOs) Predictions

Prediction of SNOs between GOES-16 and NOAA-20 Satellite Orbit:

Table of predicted SNOs for the next 14.0 days since TLE Epoch: 4/4/2025
Index Date Time (GOES-16) GOES-16 Lat,Lon NOAA-20 Lat,Lon Distance(km) Time Diff (sec)
1 04/06/2025 18:24:33 0.05, -75.48 0.02, -75.59 12.76 80
2 04/09/2025 06:30:20 -0.04, -75.50 0.14, -76.34 95.52 80
3 04/10/2025 06:08:57 -0.04, -75.51 -0.85, -71.81 420.97 80
4 04/11/2025 18:30:56 0.04, -75.51 -0.32, -77.13 184.23 80
5 04/12/2025 18:14:53 0.04, -75.52 0.67, -72.60 332.83 80
6 04/14/2025 06:36:43 -0.04, -75.56 0.46, -77.88 264.69 80
7 04/15/2025 06:15:20 -0.04, -75.57 -0.54, -73.36 252.37 80
8 04/16/2025 18:37:18 0.04, -75.57 -0.67, -78.66 352.44 80
9 04/17/2025 18:21:14 0.04, -75.59 0.34, -74.13 165.02 80
